Regional Weather Roundup
Issued by NWS Albany, NY

Current Version | Previous Version | Text Only | Print | Product List | Glossary On
Versions: 1 2 3 4 5 6 7 8 9 10 11 12 13 14 15 16 17 18 19 20 21 22 23 24 25 26 27 28 29 30 31 32 33 34 35 36 37 38 39 40 41 42 43 44 45 46 47 48 49 50
000
ASUS41 KALY 171110
RWRALY

NEW YORK STATE HOURLY WEATHER ROUNDUP
NATIONAL WEATHER SERVICE ALBANY NY
700 AM EDT TUE OCT 17 2017

NOTE: "FAIR" INDICATES FEW OR NO CLOUDS BELOW 12,000 FEET WITH NO
SIGNIFICANT WEATHER AND/OR NO OBSTRUCTIONS TO VISIBILITY.

NYZ032-033-038>043-046>054-057>066-NYZ062>081-082-084-171200-
EAST


CITY           SKY/WX    TMP DP  RH WIND       PRES   REMARKS
ALBANY         CLEAR     34  30  85 CALM      30.32R
GLENS FALLS    CLEAR     28  25  88 CALM      30.30S
POUGHKEEPSIE   CLEAR     31  29  92 CALM      30.32R
NEWBURGH       CLEAR     34  34 100 CALM      30.32R
MONTGOMERY     CLEAR     32  30  92 CALM      30.31R
WHITE PLAINS   CLEAR     38  32  79 N5        30.30R WCI  34
ISLIP          PTCLDY    40  35  83 N7        30.28R
NEW YORK CITY  PTCLDY    46  34  62 N13       30.31R
CENTRAL PARK   CLEAR     43  34  70 VRB3      30.34R
$$

NYZ005>009-017-018-044>046-055-056-171200-
CENTRAL


CITY           SKY/WX    TMP DP  RH WIND       PRES   REMARKS
FULTON         CLEAR     31  30  96 VRB3      30.29S
SYRACUSE       CLEAR     33  32  96 CALM      30.30S
ROME           CLEAR     30  29  96 CALM      30.33R
ELMIRA         CLOUDY    32  32 100 VRB3      30.32S FOG
BINGHAMTON     CLEAR     33  29  85 W3        30.28S
MONTICELLO     CLEAR     29  27  92 W3        30.30R
$$

NYZ026>034-041>043-087-171200-
NORTH


CITY           SKY/WX    TMP DP  RH WIND       PRES   REMARKS
WATERTOWN      CLEAR     34  30  85 S5        30.27S WCI  30
FORT DRUM      NOT AVBL
OGDENSBURG     FAIR      33  32  98 S6        30.24F WCI  27
MASSENA        CLEAR     31  30  96 S7        30.26S WCI  24
SARANAC LAKE   CLEAR     22  22 100 CALM      30.22S
PLATTSBURGH    CLEAR     33  28  81 W5        30.27S WCI  29
$$

NYZ001>004-010>016-019>021-085-171200-
WEST


CITY           SKY/WX    TMP DP  RH WIND       PRES   REMARKS
NIAGARA FALLS  CLEAR     40  35  83 S7        30.25S
BUFFALO        PTCLDY    37  32  82 S7        30.26S WCI  32
DUNKIRK        PTCLDY    43  34  70 S9        30.28R
JAMESTOWN      CLEAR     30  29  96 S3        30.29R
WELLSVILLE     CLEAR     32  27  81 CALM      30.29S
ROCHESTER      CLEAR     36  33  89 SW9       30.29S WCI  29
$$

             KEY
       WCI = WIND CHILL INDEX
       VSB = VISIBILITY
       HX  = HEAT INDEX
$$



USA.gov is the U.S. government's official web portal to all federal, state and local government web resources and services.